Location: Mouss�
(47.9236°N, 1.2701°W)
Time: 03:25:28
(UTC+00:00)

Okean-O - Pass Details

Date: 03 March 2021
Orbit: 639 x 640 km, 98.2° (Epoch: 16 April)

Event Time Altitude Azimuth Distance (km) Brightness Sun altitude
Rises 18:22:16 0° 153° (SSE) 2,934 5.8 -5.7°
Reaches altitude 10° 18:24:29 10° 149° (SSE) 2,030 4.9 -6.1°
Maximum altitude 18:28:48 57° 72° (ENE) 760 2.7 -6.8°
Drops below altitude 10° 18:33:10 10° 354° (N) 2,045 5.3 -7.6°
Sets 18:35:24 0° 350° (N) 2,959 6.2 -7.9°
